EDW7291 EGPH-LSZH

Flight info

Callsign EDW7291
Flight time 1h 46m
Altitude 41000
Route GOSAM1C GOSAM P600 FENIK L612 NAVSO DCT AKOMU DCT VAMEB UL612 HON L15 FINMA DCT CHT DCT ITVIP DCT KONAN UL607 KOK DCT SISGA DCT IDOSA DCT SUTAL DCT GTQ DCT BAMEV DCT BLM BLM3G
Aircraft A359/H-SDE2E3GHIJ3J4J5LM1ORWXY/LB1D1

Departure

Time 2026-05-06 10:05
Airport Edinburgh Airport (EGPH)

Arrival

Time 2026-05-06 11:51
Airport Zürich Airport (LSZH)
Time Latitude Longitude Altitude Speed Heading
2026-05-06 09:26 55.94703 -3.36832 123 ft 0 kts 269°
2026-05-06 09:52 55.94703 -3.36793 119 ft 4 kts 275°
2026-05-06 09:52 55.94697 -3.36751 122 ft 4 kts 317°
2026-05-06 09:53 55.94678 -3.36736 120 ft 4 kts 352°
2026-05-06 09:53 55.94650 -3.36734 114 ft 4 kts
2026-05-06 09:53 55.94634 -3.36734 118 ft 0 kts 359°
2026-05-06 09:58 55.94642 -3.36734 115 ft 5 kts
2026-05-06 09:58 55.94699 -3.36736 120 ft 10 kts 359°
2026-05-06 09:59 55.94773 -3.36767 120 ft 12 kts 345°
2026-05-06 09:59 55.94860 -3.36783 122 ft 13 kts 349°
2026-05-06 09:59 55.94918 -3.36850 117 ft 8 kts 292°
2026-05-06 09:59 55.94903 -3.36962 120 ft 11 kts 242°
2026-05-06 10:00 55.94857 -3.37100 120 ft 15 kts 239°
2026-05-06 10:00 55.94798 -3.37276 120 ft 18 kts 239°
2026-05-06 10:00 55.94728 -3.37486 117 ft 21 kts 239°
2026-05-06 10:00 55.94647 -3.37720 117 ft 24 kts 238°
2026-05-06 10:01 55.94554 -3.37994 117 ft 27 kts 239°
2026-05-06 10:01 55.94470 -3.38241 117 ft 22 kts 239°
2026-05-06 10:01 55.94385 -3.38489 117 ft 25 kts 238°
2026-05-06 10:01 55.94319 -3.38687 117 ft 11 kts 238°
2026-05-06 10:02 55.94283 -3.38800 120 ft 8 kts 254°
2026-05-06 10:02 55.94303 -3.38875 117 ft 3 kts 315°
2026-05-06 10:02 55.94304 -3.38876 117 ft 0 kts 315°
2026-05-06 10:03 55.94305 -3.38877 122 ft 1 kts 316°
2026-05-06 10:04 55.94331 -3.38913 119 ft 8 kts 324°
2026-05-06 10:04 55.94382 -3.38971 116 ft 6 kts 335°
2026-05-06 10:04 55.94414 -3.38956 115 ft 3 kts 35°
2026-05-06 10:04 55.94434 -3.38913 118 ft 6 kts 55°
2026-05-06 10:05 55.94541 -3.38603 114 ft 71 kts 58°
2026-05-06 10:05 55.94791 -3.37865 117 ft 137 kts 58°
2026-05-06 10:05 55.95383 -3.36128 748 ft 173 kts 60°
2026-05-06 10:05 55.96060 -3.34216 1871 ft 198 kts 57°
2026-05-06 10:06 55.97142 -3.32484 2385 ft 226 kts 26°
2026-05-06 10:06 55.98754 -3.32290 3154 ft 245 kts 347°
2026-05-06 10:06 56.00175 -3.33985 4089 ft 255 kts 310°
2026-05-06 10:06 56.00881 -3.36909 5050 ft 262 kts 285°
2026-05-06 10:07 56.01285 -3.40107 5687 ft 263 kts 285°
2026-05-06 10:07 56.01620 -3.43331 6016 ft 265 kts 276°
2026-05-06 10:07 56.01451 -3.46569 6532 ft 267 kts 258°
2026-05-06 10:07 56.00971 -3.49803 7531 ft 265 kts 257°
2026-05-06 10:08 56.00512 -3.52825 8634 ft 262 kts 258°
2026-05-06 10:08 56.00049 -3.55987 9664 ft 265 kts 258°
2026-05-06 10:08 55.99583 -3.59213 10509 ft 274 kts 258°
2026-05-06 10:08 55.99102 -3.62623 10963 ft 296 kts 258°
2026-05-06 10:09 55.98577 -3.66283 11327 ft 310 kts 258°
2026-05-06 10:09 55.98026 -3.70097 11628 ft 325 kts 258°
2026-05-06 10:09 55.97450 -3.74081 11990 ft 336 kts 257°
2026-05-06 10:09 55.96866 -3.78109 12512 ft 341 kts 257°
2026-05-06 10:10 55.96082 -3.82156 13097 ft 347 kts 247°
2026-05-06 10:10 55.94764 -3.85809 13640 ft 355 kts 231°
2026-05-06 10:10 55.92831 -3.88579 14172 ft 364 kts 211°
2026-05-06 10:10 55.90397 -3.89978 14667 ft 373 kts 191°
2026-05-06 10:11 55.87778 -3.90262 15166 ft 380 kts 182°
2026-05-06 10:11 55.85123 -3.90004 15670 ft 384 kts 178°
2026-05-06 10:11 55.82451 -3.89510 16184 ft 388 kts 176°
2026-05-06 10:11 55.79759 -3.88965 16700 ft 390 kts 176°
2026-05-06 10:12 55.77052 -3.88454 17200 ft 393 kts 177°
2026-05-06 10:12 55.74326 -3.87998 17714 ft 395 kts 178°
2026-05-06 10:12 55.71577 -3.87592 18210 ft 397 kts 178°
2026-05-06 10:12 55.68811 -3.87219 18667 ft 399 kts 179°
2026-05-06 10:13 55.66031 -3.86863 19106 ft 402 kts 179°
2026-05-06 10:13 55.63231 -3.86513 19536 ft 404 kts 179°
2026-05-06 10:13 55.60421 -3.86161 19958 ft 406 kts 179°
2026-05-06 10:13 55.57587 -3.85806 20377 ft 409 kts 179°
2026-05-06 10:14 55.54778 -3.85453 20797 ft 411 kts 179°
2026-05-06 10:14 55.51884 -3.85088 21235 ft 413 kts 179°
2026-05-06 10:14 55.49049 -3.84729 21631 ft 415 kts 179°
2026-05-06 10:14 55.46162 -3.84364 22005 ft 417 kts 179°
2026-05-06 10:15 55.43215 -3.83992 22406 ft 420 kts 179°
2026-05-06 10:15 55.40333 -3.83627 22789 ft 422 kts 179°
2026-05-06 10:15 55.37394 -3.83256 23181 ft 424 kts 179°
2026-05-06 10:15 55.34439 -3.82883 23559 ft 427 kts 179°
2026-05-06 10:16 55.31472 -3.82509 23889 ft 429 kts 179°
2026-05-06 10:16 55.28488 -3.82134 24215 ft 431 kts 179°
2026-05-06 10:16 55.25494 -3.81709 24536 ft 433 kts 176°
2026-05-06 10:16 55.22513 -3.80733 24872 ft 438 kts 168°
2026-05-06 10:17 55.19607 -3.79029 25197 ft 442 kts 161°
2026-05-06 10:17 55.16772 -3.76901 25547 ft 445 kts 158°
2026-05-06 10:17 55.13984 -3.74548 25908 ft 447 kts 156°
2026-05-06 10:17 55.11200 -3.72083 26286 ft 449 kts 155°
2026-05-06 10:18 55.08413 -3.69592 26658 ft 451 kts 155°
2026-05-06 10:18 55.05601 -3.67102 27054 ft 453 kts 156°
2026-05-06 10:18 55.02775 -3.64634 27433 ft 455 kts 156°
2026-05-06 10:18 54.99932 -3.62181 27835 ft 458 kts 156°
2026-05-06 10:19 54.97065 -3.59729 28244 ft 460 kts 156°
2026-05-06 10:19 54.94217 -3.57307 28640 ft 463 kts 156°
2026-05-06 10:19 54.91310 -3.54842 29027 ft 466 kts 156°
2026-05-06 10:19 54.88397 -3.52377 29434 ft 468 kts 156°
2026-05-06 10:20 54.85446 -3.49882 29882 ft 471 kts 156°
2026-05-06 10:20 54.82495 -3.47389 30285 ft 473 kts 156°
2026-05-06 10:20 54.79519 -3.44878 30619 ft 476 kts 156°
2026-05-06 10:20 54.76536 -3.42366 30956 ft 479 kts 156°
2026-05-06 10:21 54.73523 -3.39832 31290 ft 482 kts 156°
2026-05-06 10:21 54.70501 -3.37295 31586 ft 484 kts 157°
2026-05-06 10:21 54.67468 -3.34753 31938 ft 486 kts 156°
2026-05-06 10:21 54.64407 -3.32191 32258 ft 488 kts 156°
2026-05-06 10:22 54.61343 -3.29631 32556 ft 491 kts 156°
2026-05-06 10:22 54.58260 -3.27060 32846 ft 493 kts 156°
2026-05-06 10:22 54.55160 -3.24479 33158 ft 495 kts 156°
2026-05-06 10:22 54.52065 -3.21904 33602 ft 493 kts 156°
2026-05-06 10:23 54.48977 -3.19341 34053 ft 491 kts 156°
2026-05-06 10:23 54.45903 -3.16792 34394 ft 490 kts 156°
2026-05-06 10:23 54.42871 -3.14283 34726 ft 489 kts 157°
2026-05-06 10:23 54.39772 -3.11724 35082 ft 488 kts 157°
2026-05-06 10:24 54.36746 -3.09230 35364 ft 489 kts 157°
2026-05-06 10:24 54.33666 -3.06698 35668 ft 489 kts 157°
2026-05-06 10:24 54.30602 -3.04182 35963 ft 490 kts 157°
2026-05-06 10:24 54.28524 -3.02477 36150 ft 490 kts 157°
2026-05-06 10:25 54.24447 -2.99139 36558 ft 490 kts 157°
2026-05-06 10:25 54.21368 -2.96621 36860 ft 491 kts 157°
2026-05-06 10:25 54.18294 -2.94112 37191 ft 490 kts 156°
2026-05-06 10:25 54.15212 -2.91620 37512 ft 489 kts 158°
2026-05-06 10:26 54.12104 -2.89269 37781 ft 489 kts 159°
2026-05-06 10:26 54.08965 -2.87011 38043 ft 490 kts 159°
2026-05-06 10:26 54.05816 -2.84783 38317 ft 490 kts 159°
2026-05-06 10:26 54.02667 -2.82556 38585 ft 490 kts 159°
2026-05-06 10:27 53.99529 -2.80322 38807 ft 490 kts 159°
2026-05-06 10:27 53.96381 -2.78058 39011 ft 491 kts 159°
2026-05-06 10:27 53.93243 -2.75796 39249 ft 489 kts 159°
2026-05-06 10:27 53.92324 -2.75133 39333 ft 489 kts 159°
2026-05-06 10:28 53.89245 -2.72674 39512 ft 491 kts 153°
2026-05-06 10:28 53.86363 -2.69529 39677 ft 494 kts 144°
2026-05-06 10:28 53.83780 -2.65686 39848 ft 496 kts 137°
2026-05-06 10:28 53.81383 -2.61502 40007 ft 497 kts 134°
2026-05-06 10:29 53.79063 -2.57147 40148 ft 498 kts 133°
2026-05-06 10:29 53.76777 -2.52733 40311 ft 498 kts 133°
2026-05-06 10:29 53.74500 -2.48320 40466 ft 499 kts 133°
2026-05-06 10:29 53.72209 -2.43915 40657 ft 498 kts 133°
2026-05-06 10:30 53.69937 -2.39591 40827 ft 498 kts 133°
2026-05-06 10:30 53.67629 -2.35236 40990 ft 497 kts 133°
2026-05-06 10:30 53.62991 -2.26562 41038 ft 498 kts 134°
2026-05-06 10:31 53.58345 -2.17922 41040 ft 498 kts 134°
2026-05-06 10:31 53.53686 -2.09285 41040 ft 498 kts 134°
2026-05-06 10:32 53.49024 -2.00665 41034 ft 498 kts 134°
2026-05-06 10:32 53.44360 -1.92073 41035 ft 498 kts 134°
2026-05-06 10:33 53.39683 -1.83488 41031 ft 498 kts 134°
2026-05-06 10:33 53.35003 -1.74927 41030 ft 498 kts 134°
2026-05-06 10:34 53.30341 -1.66428 41023 ft 498 kts 134°
2026-05-06 10:34 53.25644 -1.57896 41022 ft 498 kts 134°
2026-05-06 10:35 53.20948 -1.49396 41011 ft 497 kts 134°
2026-05-06 10:35 53.16253 -1.40926 41019 ft 497 kts 134°
2026-05-06 10:36 53.11561 -1.32491 41011 ft 497 kts 134°
2026-05-06 10:36 53.06845 -1.24043 41014 ft 497 kts 135°
2026-05-06 10:37 53.02131 -1.15628 41017 ft 497 kts 135°
2026-05-06 10:37 52.97415 -1.07237 41011 ft 497 kts 135°
2026-05-06 10:38 52.92684 -0.98849 41009 ft 497 kts 135°
2026-05-06 10:38 52.87993 -0.90558 41009 ft 496 kts 135°
2026-05-06 10:39 52.83273 -0.82247 41010 ft 496 kts 135°
2026-05-06 10:39 52.78547 -0.73952 41008 ft 496 kts 135°
2026-05-06 10:40 52.73812 -0.65671 41001 ft 495 kts 135°
2026-05-06 10:40 52.69083 -0.57427 40990 ft 494 kts 135°
2026-05-06 10:41 52.64354 -0.49211 40992 ft 494 kts 135°
2026-05-06 10:41 52.59608 -0.40993 40994 ft 494 kts 135°
2026-05-06 10:42 52.54871 -0.32819 40991 ft 494 kts 135°
2026-05-06 10:42 52.50122 -0.24652 40987 ft 494 kts 135°
2026-05-06 10:43 52.45374 -0.16512 40984 ft 494 kts 135°
2026-05-06 10:44 52.38234 -0.04325 40981 ft 494 kts 135°
2026-05-06 10:44 52.33499 0.03725 40971 ft 494 kts 135°
2026-05-06 10:45 52.28717 0.11827 40973 ft 495 kts 135°
2026-05-06 10:45 52.23933 0.19907 40966 ft 495 kts 135°
2026-05-06 10:46 52.19138 0.27977 40965 ft 495 kts 136°
2026-05-06 10:46 52.14347 0.36015 40965 ft 495 kts 136°
2026-05-06 10:47 52.09548 0.44040 40969 ft 495 kts 136°
2026-05-06 10:47 52.04747 0.52041 40958 ft 494 kts 136°
2026-05-06 10:48 51.99955 0.60003 40961 ft 492 kts 136°
2026-05-06 10:48 51.95164 0.67935 40956 ft 492 kts 136°
2026-05-06 10:49 51.91179 0.74515 40953 ft 492 kts 136°
2026-05-06 10:49 51.85602 0.83692 40957 ft 492 kts 136°
2026-05-06 10:50 51.81873 0.89807 40960 ft 492 kts 136°
2026-05-06 10:50 51.77534 0.96906 40952 ft 491 kts 136°
2026-05-06 10:51 51.73541 1.03421 40947 ft 491 kts 136°
2026-05-06 10:51 51.68734 1.11241 40944 ft 491 kts 136°
2026-05-06 10:52 51.63921 1.19044 40948 ft 491 kts 136°
2026-05-06 10:52 51.59108 1.26822 40947 ft 491 kts 136°
2026-05-06 10:53 51.54287 1.34588 40938 ft 491 kts 136°
2026-05-06 10:53 51.49456 1.42347 40930 ft 491 kts 136°
2026-05-06 10:54 51.44626 1.50081 40944 ft 490 kts 136°
2026-05-06 10:54 51.39789 1.57802 40933 ft 490 kts 137°
2026-05-06 10:55 51.34980 1.65451 40937 ft 490 kts 137°
2026-05-06 10:55 51.30141 1.73127 40928 ft 490 kts 138°
2026-05-06 10:56 51.25287 1.80796 40928 ft 491 kts 137°
2026-05-06 10:56 51.20435 1.88442 40921 ft 491 kts 137°
2026-05-06 10:57 51.15914 1.96620 40919 ft 494 kts 126°
2026-05-06 10:57 51.13031 2.06566 40915 ft 500 kts 106°
2026-05-06 10:58 51.11884 2.17495 40912 ft 502 kts 97°
2026-05-06 10:58 51.11379 2.28593 40913 ft 503 kts 95°
2026-05-06 10:59 51.10896 2.39641 40913 ft 503 kts 96°
2026-05-06 10:59 51.10317 2.50719 40911 ft 502 kts 97°
2026-05-06 11:00 51.09532 2.61725 40910 ft 500 kts 103°
2026-05-06 11:00 51.07205 2.72033 40908 ft 495 kts 117°
2026-05-06 11:01 51.04073 2.81764 40911 ft 495 kts 120°
2026-05-06 11:01 51.00841 2.91329 40905 ft 493 kts 120°
2026-05-06 11:02 50.97605 3.00907 40904 ft 492 kts 120°
2026-05-06 11:02 50.94364 3.10545 40896 ft 492 kts 120°
2026-05-06 11:03 50.91144 3.20117 40883 ft 492 kts 120°
2026-05-06 11:03 50.87934 3.29623 40876 ft 492 kts 120°
2026-05-06 11:04 50.84684 3.39209 40877 ft 491 kts 120°
2026-05-06 11:04 50.81468 3.48659 40872 ft 490 kts 120°
2026-05-06 11:05 50.78225 3.58150 40873 ft 490 kts 120°
2026-05-06 11:05 50.74980 3.67611 40872 ft 490 kts 120°
2026-05-06 11:06 50.71725 3.77067 40867 ft 490 kts 120°
2026-05-06 11:06 50.68458 3.86523 40871 ft 490 kts 120°
2026-05-06 11:07 50.65190 3.95947 40867 ft 490 kts 120°
2026-05-06 11:07 50.61848 4.05285 40861 ft 489 kts 125°
2026-05-06 11:08 50.57955 4.13967 40865 ft 488 kts 128°
2026-05-06 11:08 50.53928 4.22554 40858 ft 487 kts 128°
2026-05-06 11:09 50.49882 4.31100 40856 ft 487 kts 128°
2026-05-06 11:09 50.45842 4.39633 40856 ft 487 kts 128°
2026-05-06 11:10 50.41795 4.48172 40856 ft 487 kts 128°
2026-05-06 11:10 50.37750 4.56684 40856 ft 487 kts 128°
2026-05-06 11:11 50.33700 4.65181 40851 ft 487 kts 128°
2026-05-06 11:11 50.29642 4.73663 40845 ft 487 kts 128°
2026-05-06 11:12 50.25574 4.82138 40845 ft 487 kts 128°
2026-05-06 11:12 50.21502 4.90596 40840 ft 487 kts 128°
2026-05-06 11:13 50.17422 4.99042 40839 ft 487 kts 129°
2026-05-06 11:13 50.13334 5.07479 40838 ft 487 kts 129°
2026-05-06 11:14 50.09270 5.15838 40824 ft 487 kts 129°
2026-05-06 11:14 50.05143 5.24302 40823 ft 488 kts 129°
2026-05-06 11:15 50.01056 5.32656 40817 ft 488 kts 129°
2026-05-06 11:15 49.96937 5.41050 40818 ft 488 kts 129°
2026-05-06 11:16 49.92812 5.49427 40807 ft 489 kts 129°
2026-05-06 11:16 49.88672 5.57810 40810 ft 489 kts 129°
2026-05-06 11:17 49.84531 5.66167 40807 ft 489 kts 129°
2026-05-06 11:17 49.80378 5.74522 40807 ft 489 kts 129°
2026-05-06 11:18 49.76219 5.82863 40804 ft 489 kts 129°
2026-05-06 11:18 49.72037 5.91179 40801 ft 489 kts 130°
2026-05-06 11:19 49.67784 5.99289 40804 ft 488 kts 131°
2026-05-06 11:19 49.63485 6.07399 40804 ft 488 kts 131°
2026-05-06 11:20 49.59186 6.15527 40804 ft 488 kts 131°
2026-05-06 11:20 49.54900 6.23639 40804 ft 488 kts 131°
2026-05-06 11:21 49.50607 6.31745 40813 ft 488 kts 131°
2026-05-06 11:21 49.45767 6.38963 40811 ft 483 kts 147°
2026-05-06 11:22 49.39904 6.43898 40817 ft 480 kts 157°
2026-05-06 11:22 49.33800 6.48065 40819 ft 480 kts 158°
2026-05-06 11:23 49.27658 6.52137 40822 ft 481 kts 158°
2026-05-06 11:23 49.21527 6.56239 40828 ft 481 kts 158°
2026-05-06 11:24 49.15402 6.60364 40832 ft 481 kts 158°
2026-05-06 11:24 49.09272 6.64491 40826 ft 481 kts 158°
2026-05-06 11:25 49.03192 6.68574 40834 ft 480 kts 158°
2026-05-06 11:25 48.97075 6.72661 40838 ft 480 kts 159°
2026-05-06 11:26 48.93311 6.74990 40837 ft 479 kts 161°
2026-05-06 11:26 48.87061 6.78605 40765 ft 477 kts 161°
2026-05-06 11:26 48.83974 6.80382 40253 ft 473 kts 161°
2026-05-06 11:27 48.80893 6.82169 39627 ft 473 kts 161°
2026-05-06 11:27 48.77820 6.83964 39008 ft 473 kts 161°
2026-05-06 11:27 48.74743 6.85770 38376 ft 473 kts 161°
2026-05-06 11:27 48.71688 6.87568 37616 ft 472 kts 161°
2026-05-06 11:28 48.68618 6.89374 36873 ft 472 kts 160°
2026-05-06 11:28 48.65560 6.91172 36152 ft 471 kts 160°
2026-05-06 11:28 48.62504 6.92967 35451 ft 470 kts 160°
2026-05-06 11:28 48.59460 6.94751 34760 ft 469 kts 160°
2026-05-06 11:29 48.56438 6.96520 34082 ft 468 kts 160°
2026-05-06 11:29 48.53426 6.98280 33290 ft 467 kts 160°
2026-05-06 11:29 48.50352 7.00074 32409 ft 467 kts 160°
2026-05-06 11:29 48.47370 7.01812 31542 ft 468 kts 160°
2026-05-06 11:30 48.44321 7.03586 30645 ft 469 kts 160°
2026-05-06 11:30 48.41277 7.05356 29746 ft 470 kts 160°
2026-05-06 11:30 48.38244 7.07118 29254 ft 460 kts 160°
2026-05-06 11:30 48.35302 7.08827 28923 ft 449 kts 160°
2026-05-06 11:31 48.32413 7.10503 28474 ft 440 kts 160°
2026-05-06 11:31 48.29571 7.12148 27903 ft 435 kts 160°
2026-05-06 11:31 48.26755 7.13775 27309 ft 431 kts 160°
2026-05-06 11:31 48.23972 7.15380 26718 ft 427 kts 160°
2026-05-06 11:32 48.21215 7.16968 26164 ft 423 kts 161°
2026-05-06 11:32 48.19354 7.18040 25797 ft 420 kts 161°
2026-05-06 11:32 48.16672 7.19582 25265 ft 416 kts 161°
2026-05-06 11:32 48.13978 7.21128 24689 ft 413 kts 161°
2026-05-06 11:33 48.11307 7.22660 24114 ft 410 kts 161°
2026-05-06 11:33 48.08655 7.24181 23572 ft 407 kts 161°
2026-05-06 11:33 48.06021 7.25691 22950 ft 403 kts 161°
2026-05-06 11:33 48.03411 7.27185 22328 ft 399 kts 161°
2026-05-06 11:34 48.00825 7.28663 21680 ft 397 kts 161°
2026-05-06 11:34 47.98250 7.30134 21028 ft 394 kts 162°
2026-05-06 11:34 47.95702 7.31588 20401 ft 391 kts 162°
2026-05-06 11:34 47.93178 7.33027 20000 ft 384 kts 162°
2026-05-06 11:35 47.90724 7.34427 19730 ft 372 kts 162°
2026-05-06 11:35 47.88354 7.35778 19392 ft 364 kts 162°
2026-05-06 11:35 47.85991 7.37120 18896 ft 361 kts 162°
2026-05-06 11:35 47.83654 7.38445 18402 ft 359 kts 162°
2026-05-06 11:36 47.81327 7.39767 17854 ft 357 kts 162°
2026-05-06 11:36 47.79016 7.41074 17324 ft 354 kts 162°
2026-05-06 11:36 47.76743 7.42359 17024 ft 344 kts 162°
2026-05-06 11:36 47.74536 7.43608 16785 ft 334 kts 162°
2026-05-06 11:37 47.72395 7.44817 16548 ft 324 kts 162°
2026-05-06 11:37 47.70307 7.45997 16249 ft 317 kts 162°
2026-05-06 11:37 47.68259 7.47153 15858 ft 313 kts 162°
2026-05-06 11:37 47.66277 7.48495 15475 ft 313 kts 154°
2026-05-06 11:38 47.64499 7.50370 15062 ft 314 kts 142°
2026-05-06 11:38 47.63033 7.52785 14633 ft 317 kts 129°
2026-05-06 11:38 47.61951 7.55644 14222 ft 319 kts 116°
2026-05-06 11:38 47.61185 7.58702 13773 ft 321 kts 112°
2026-05-06 11:39 47.60473 7.61829 13309 ft 320 kts 112°
2026-05-06 11:39 47.59757 7.64951 12861 ft 318 kts 112°
2026-05-06 11:39 47.59042 7.68038 12445 ft 316 kts 113°
2026-05-06 11:39 47.58327 7.71102 12044 ft 314 kts 113°
2026-05-06 11:40 47.57617 7.74137 11896 ft 312 kts 114°
2026-05-06 11:40 47.56906 7.77180 11630 ft 312 kts 114°
2026-05-06 11:40 47.56201 7.80178 11399 ft 304 kts 114°
2026-05-06 11:40 47.55515 7.83091 11230 ft 294 kts 114°
2026-05-06 11:41 47.54853 7.85899 11048 ft 284 kts 114°
2026-05-06 11:41 47.54211 7.88613 10837 ft 277 kts 114°
2026-05-06 11:41 47.53574 7.91299 10518 ft 275 kts 114°
2026-05-06 11:41 47.52942 7.93955 10160 ft 274 kts 115°
2026-05-06 11:42 47.52319 7.96603 9870 ft 270 kts 114°
2026-05-06 11:42 47.51999 7.99338 9254 ft 274 kts 94°
2026-05-06 11:42 47.52404 8.02110 8589 ft 280 kts 64°
2026-05-06 11:42 47.53638 8.04288 8024 ft 275 kts 39°
2026-05-06 11:43 47.55106 8.06094 7557 ft 273 kts 37°
2026-05-06 11:43 47.56571 8.07874 7128 ft 271 kts 38°
2026-05-06 11:43 47.58020 8.09661 6774 ft 270 kts 38°
2026-05-06 11:44 47.60864 8.13205 6287 ft 266 kts 38°
2026-05-06 11:44 47.62237 8.15043 6094 ft 265 kts 44°
2026-05-06 11:44 47.63487 8.16975 6066 ft 258 kts 45°
2026-05-06 11:44 47.64690 8.18886 6058 ft 245 kts 46°
2026-05-06 11:45 47.65828 8.20697 6067 ft 243 kts 45°
2026-05-06 11:45 47.66844 8.22733 6070 ft 244 kts 64°
2026-05-06 11:45 47.67221 8.25110 6063 ft 231 kts 97°
2026-05-06 11:45 47.66856 8.27334 6090 ft 218 kts 120°
2026-05-06 11:46 47.66019 8.29123 6076 ft 212 kts 140°
2026-05-06 11:46 47.64935 8.30632 5997 ft 211 kts 144°
2026-05-06 11:46 47.63882 8.32086 5740 ft 208 kts 143°
2026-05-06 11:46 47.62827 8.33556 5430 ft 208 kts 143°
2026-05-06 11:47 47.61778 8.34998 5120 ft 206 kts 143°
2026-05-06 11:47 47.60733 8.36435 4816 ft 203 kts 142°
2026-05-06 11:47 47.59709 8.37843 4537 ft 199 kts 142°
2026-05-06 11:47 47.58703 8.39226 4270 ft 197 kts 142°
2026-05-06 11:48 47.57719 8.40580 3994 ft 188 kts 143°
2026-05-06 11:48 47.56786 8.41860 3742 ft 177 kts 143°
2026-05-06 11:48 47.55918 8.43054 3519 ft 165 kts 143°
2026-05-06 11:48 47.55102 8.44173 3308 ft 156 kts 143°
2026-05-06 11:49 47.54321 8.45241 3108 ft 151 kts 143°
2026-05-06 11:49 47.53551 8.46294 2928 ft 149 kts 140°
2026-05-06 11:49 47.52768 8.47368 2717 ft 155 kts 141°
2026-05-06 11:49 47.51982 8.48447 2503 ft 152 kts 141°
2026-05-06 11:50 47.51210 8.49501 2274 ft 150 kts 140°
2026-05-06 11:50 47.50450 8.50527 2072 ft 146 kts 139°
2026-05-06 11:50 47.49711 8.51577 1856 ft 148 kts 138°
2026-05-06 11:50 47.48960 8.52608 1673 ft 147 kts 138°
2026-05-06 11:51 47.48207 8.53616 1453 ft 147 kts 138°
2026-05-06 11:51 47.47484 8.54601 1416 ft 130 kts 137°
2026-05-06 11:51 47.46970 8.55300 1411 ft 71 kts 138°
2026-05-06 11:51 47.46709 8.55657 1412 ft 37 kts 137°
2026-05-06 11:52 47.46559 8.55847 1411 ft 29 kts 145°
2026-05-06 11:52 47.46422 8.55943 1405 ft 12 kts 167°
2026-05-06 11:52 47.46342 8.55973 1411 ft 13 kts 166°
2026-05-06 11:52 47.46250 8.56002 1410 ft 14 kts 171°
2026-05-06 11:53 47.46148 8.56001 1409 ft 15 kts 187°
2026-05-06 11:53 47.46040 8.55983 1410 ft 16 kts 185°
2026-05-06 11:53 47.45950 8.55932 1415 ft 14 kts 234°
2026-05-06 11:53 47.45945 8.55782 1405 ft 17 kts 275°
2026-05-06 11:54 47.45952 8.55669 1403 ft 7 kts 275°
2026-05-06 11:54 47.45969 8.55627 1411 ft 5 kts 330°
2026-05-06 11:54 47.46012 8.55621 1406 ft 6 kts
2026-05-06 11:54 47.46026 8.55623 1410 ft 0 kts
2026-05-06 11:55 47.46036 8.55624 1404 ft 0 kts